DW2363 Weather Reports


Display with metric or nautical units.
time (UTC)temp
F
wind
direction
speed
MPH
gust
MPH
rain 1hr
in
rain 24hr
in
rain mn
in
humidity
%
barometer
mb
20210307020831 53 319 5.0 9.0 0.00 0.00 0.00 75 1014.3
20210307020409 53 298 6.0 9.0 0.00 0.00 0.00 75 1014.2
20210307020116 53 285 6.0 9.0 0.00 0.00 0.00 75 1014.2
20210307015916 54 261 5.0 8.0 0.00 0.00 0.00 74 1014.2
20210307014943 54 292 5.0 8.0 0.00 0.00 0.00 74 1014.2
20210307014334 54 267 4.0 8.0 0.00 0.00 0.00 73 1014.2
20210307013831 54 280 4.0 7.0 0.00 0.00 0.00 73 1014.1
20210307013328 55 266 4.0 7.0 0.00 0.00 0.00 73 1014.2
20210307012828 55 260 3.0 7.0 0.00 0.00 0.00 72 1014.2
20210307012547 55 239 3.0 6.0 0.00 0.00 0.00 71 1014.1
20210307011836 56 233 3.0 6.0 0.00 0.00 0.00 70 1014.1
20210307011330 56 292 3.0 6.0 0.00 0.00 0.00 69 1014.2
20210307010825 56 277 2.0 5.0 0.00 0.00 0.00 70 1014.1
20210307010330 56 201 1.0 5.0 0.00 0.00 0.00 71 1014.1
20210307010031 56 315 2.0 5.0 0.00 0.00 0.00 72 1014.1
20210307005750 56 308 3.0 6.0 0.00 0.00 0.00 73 1014.2
20210307004956 56 248 3.0 6.0 0.00 0.00 0.00 73 1014.2
20210307004323 56 236 3.0 6.0 0.00 0.00 0.00 73 1014.3
20210307003822 56 204 2.0 6.0 0.00 0.00 0.00 74 1014.2
20210307003330 56 302 3.0 6.0 0.00 0.00 0.00 74 1014.1
20210307002901 55 290 4.0 8.0 0.00 0.00 0.00 76 1014.1
20210307002750 55 267 5.0 8.0 0.00 0.00 0.00 77 1014.1
20210307001943 54 248 5.0 10.0 0.00 0.00 0.00 75 1014.0
20210307001323 54 204 6.0 10.0 0.00 0.00 0.00 75 1014.1
20210307000827 54 211 7.0 11.0 0.00 0.00 0.00 78 1014.1
20210307000554 54 231 7.0 11.0 0.00 0.00 0.00 76 1014.2
20210307000117 54 196 7.0 14.0 0.00 0.00 0.00 77 1014.2
20210306235912 55 217 8.0 14.0 0.00 0.00 0.00 76 1014.1
20210306234823 56 208 7.0 13.0 0.00 0.00 0.00 73 1014.2
20210306234328 56 202 7.0 13.0 0.00 0.00 0.00 72 1014.3
20210306233820 56 190 8.0 13.0 0.00 0.00 0.00 70 1014.3
20210306233328 56 182 8.0 13.0 0.00 0.00 0.00 68 1014.3
20210306233032 56 183 7.0 13.0 0.00 0.00 0.00 66 1014.3
20210306232819 56 178 7.0 13.0 0.00 0.00 0.00 66 1014.3
20210306232025 56 204 8.0 12.0 0.00 0.00 0.00 67 1014.3
20210306231333 56 218 8.0 15.0 0.00 0.00 0.00 66 1014.3
20210306230821 56 206 8.0 15.0 0.00 0.00 0.00 66 1014.4
20210306230324 56 222 9.0 14.0 0.00 0.00 0.00 67 1014.4
20210306225924 56 200 9.0 14.0 0.00 0.00 0.00 65 1014.5
20210306225740 56 212 8.0 14.0 0.00 0.00 0.00 65 1014.5
20210306224937 57 227 8.0 14.0 0.00 0.00 0.00 64 1014.5
20210306224320 58 229 7.0 12.0 0.00 0.00 0.00 62 1014.5
20210306223818 58 211 7.0 11.0 0.00 0.00 0.00 61 1014.6
20210306223318 58 232 7.0 11.0 0.00 0.00 0.00 61 1014.5
20210306223011 58 159 7.0 14.0 0.00 0.00 0.00 63 1014.6
20210306222826 57 214 6.0 14.0 0.00 0.00 0.00 63 1014.8
20210306221910 58 187 6.0 13.0 0.00 0.00 0.00 62 1014.8
20210306221320 58 250 7.0 13.0 0.00 0.00 0.00 62 1014.9
20210306220820 58 188 6.0 10.0 0.00 0.00 0.00 60 1014.9
20210306220320 59 202 7.0 13.0 0.00 0.00 0.00 61 1014.9
20210306215838 58 215 7.0 14.0 0.00 0.00 0.00 61 1014.9
20210306215603 59 185 7.0 14.0 0.00 0.00 0.00 60 1015.0
20210306214917 58 201 7.0 12.0 0.00 0.00 0.00 60 1014.9
20210306214318 58 175 6.0 11.0 0.00 0.00 0.00 60 1015.0
20210306213825 58 149 6.0 10.0 0.00 0.00 0.00 57 1015.0
20210306213324 58 151 6.0 10.0 0.00 0.00 0.00 58 1014.9
20210306212939 58 171 7.0 11.0 0.00 0.00 0.00 56 1015.0
20210306212817 58 171 6.0 11.0 0.00 0.00 0.00 55 1015.1
20210306211857 58 140 6.0 11.0 0.00 0.00 0.00 55 1015.1
20210306211318 58 164 7.0 12.0 0.00 0.00 0.00 54 1015.1
20210306210818 58 132 7.0 12.0 0.00 0.00 0.00 53 1015.1
20210306210317 58 164 7.0 12.0 0.00 0.00 0.00 54 1015.1
20210306205833 58 161 7.0 13.0 0.00 0.00 0.00 54 1015.2
20210306205540 58 157 7.0 13.0 0.00 0.00 0.00 54 1015.3
20210306204904 57 157 7.0 14.0 0.00 0.00 0.00 56 1015.4
20210306204317 57 128 7.0 14.0 0.00 0.00 0.00 53 1015.5
20210306203816 56 171 7.0 12.0 0.00 0.00 0.00 53 1015.6
20210306203317 56 172 8.0 15.0 0.00 0.00 0.00 56 1015.7
20210306202923 57 159 9.0 15.0 0.00 0.00 0.00 52 1015.6
20210306202808 57 156 8.0 14.0 0.00 0.00 0.00 54 1015.7
20210306201904 57 155 8.0 14.0 0.00 0.00 0.00 55 1015.7
20210306201323 57 200 7.0 14.0 0.00 0.00 0.00 54 1015.8
20210306200817 57 155 7.0 14.0 0.00 0.00 0.00 54 1015.8
20210306200314 57 126 7.0 12.0 0.00 0.00 0.00 51 1015.8
20210306195839 57 196 6.0 13.0 0.00 0.00 0.00 55 1015.8
20210306195633 56 173 6.0 13.0 0.00 0.00 0.00 53 1015.9
20210306194832 56 176 7.0 12.0 0.00 0.00 0.00 56 1016.0
20210306194314 56 140 7.0 11.0 0.00 0.00 0.00 53 1016.0
20210306193819 56 142 7.0 12.0 0.00 0.00 0.00 60 1015.9
20210306193316 56 148 7.0 12.0 0.00 0.00 0.00 58 1015.9
20210306192820 56 150 7.0 12.0 0.00 0.00 0.00 56 1016.0
20210306192616 56 148 7.0 12.0 0.00 0.00 0.00 52 1016.0
20210306191849 57 171 7.0 11.0 0.00 0.00 0.00 60 1016.0
20210306191315 56 131 6.0 12.0 0.00 0.00 0.00 58 1016.2
20210306190816 57 149 6.0 12.0 0.00 0.00 0.00 63 1016.0
20210306190326 56 196 7.0 12.0 0.00 0.00 0.00 60 1016.2
20210306185919 56 173 7.0 12.0 0.00 0.00 0.00 59 1016.2
20210306185731 56 188 7.0 11.0 0.00 0.00 0.00 62 1016.2
20210306185018 56 182 7.0 13.0 0.00 0.00 0.00 65 1016.2
20210306184323 55 178 6.0 13.0 0.00 0.00 0.00 65 1016.2
20210306183817 55 229 6.0 10.0 0.00 0.00 0.00 65 1016.3
20210306183336 56 174 6.0 10.0 0.00 0.00 0.00 61 1016.3
20210306183105 56 215 6.0 9.0 0.00 0.00 0.00 64 1016.3
20210306182740 57 190 5.0 8.0 0.00 0.00 0.00 61 1016.4
20210306181818 57 209 5.0 10.0 0.00 0.00 0.00 64 1016.3
20210306181310 57 156 5.0 10.0 0.00 0.00 0.00 55 1016.3
20210306180811 56 186 4.0 9.0 0.00 0.00 0.00 63 1016.3
20210306180310 56 170 4.0 9.0 0.00 0.00 0.00 64 1016.2
20210306175943 55 192 4.0 7.0 0.00 0.00 0.00 65 1016.2
20210306175817 55 177 4.0 7.0 0.00 0.00 0.00 67 1016.2
20210306174858 54 174 3.0 6.0 0.00 0.00 0.00 66 1016.2
20210306174307 53 200 4.0 6.0 0.00 0.00 0.00 63 1016.3
20210306173813 53 185 4.0 7.0 0.00 0.00 0.00 68 1016.3
20210306173308 53 215 5.0 9.0 0.00 0.00 0.00 71 1016.3
20210306172953 54 200 4.0 9.0 0.00 0.00 0.00 68 1016.3
20210306172853 54 173 4.0 7.0 0.00 0.00 0.00 66 1016.4
20210306172201 55 192 4.0 8.0 0.00 0.00 0.00 62 1016.5
20210306171308 55 208 4.0 8.0 0.00 0.00 0.00 63 1016.4
20210306170806 56 227 5.0 9.0 0.00 0.00 0.00 56 1016.3
20210306170428 56 186 5.0 9.0 0.00 0.00 0.00 55 1016.3
20210306170224 57 144 6.0 9.0 0.00 0.00 0.00 52 1016.2
20210306165906 57 133 6.0 9.0 0.00 0.00 0.00 52 1016.3
20210306165037 57 108 5.0 8.0 0.00 0.00 0.00 49 1016.2
20210306164307 57 126 4.0 7.0 0.00 0.00 0.00 51 1016.2
20210306163803 57 126 4.0 8.0 0.00 0.00 0.00 50 1016.3
20210306163310 56 113 4.0 8.0 0.00 0.00 0.00 50 1016.4
20210306162859 56 74 4.0 8.0 0.00 0.00 0.00 47 1016.4
20210306162432 56 38 4.0 8.0 0.00 0.00 0.00 47 1016.4
20210306161829 56 71 3.0 6.0 0.00 0.00 0.00 44 1016.4
20210306161315 55 84 2.0 3.0 0.00 0.00 0.00 43 1016.5
20210306160803 56 267 2.0 3.0 0.00 0.00 0.00 38 1016.6
20210306160306 57 182 2.0 3.0 0.00 0.00 0.00 39 1016.5
20210306155903 56 182 2.0 3.0 0.00 0.00 0.00 40 1016.5
20210306155531 56 198 2.0 3.0 0.00 0.00 0.00 39 1016.5
20210306154809 56 215 2.0 5.0 0.00 0.00 0.00 38 1016.5
20210306154306 56 200 2.0 5.0 0.00 0.00 0.00 39 1016.5
20210306153801 56 5 3.0 5.0 0.00 0.00 0.00 38 1016.4
20210306153301 56 13 4.0 5.0 0.00 0.00 0.00 38 1016.3
20210306152827 56 19 4.0 5.0 0.00 0.00 0.00 37 1016.2
20210306152619 55 51 4.0 5.0 0.00 0.00 0.00 38 1016.2
20210306151919 55 24 4.0 5.0 0.00 0.00 0.00 37 1016.2
20210306151300 54 5 3.0 5.0 0.00 0.00 0.00 37 1016.2
20210306150759 54 11 4.0 5.0 0.00 0.00 0.00 38 1016.2
20210306150259 54 355 4.0 5.0 0.00 0.00 0.00 37 1016.2
20210306145822 53 0 3.0 4.0 0.00 0.00 0.00 38 1016.0
20210306145616 53 11 2.0 4.0 0.00 0.00 0.00 38 1016.2
20210306144838 53 342 1.0 3.0 0.00 0.00 0.00 39 1016.0
20210306144255 53 190 1.0 3.0 0.00 0.00 0.00 39 1016.2
20210306143757 53 234 1.0 2.0 0.00 0.00 0.00 37 1016.0
20210306143302 53 234 2.0 5.0 0.00 0.00 0.00 37 1016.2
20210306142854 53 234 3.0 5.0 0.00 0.00 0.00 37 1016.0
20210306142703 53 247 4.0 7.0 0.00 0.00 0.00 37 1016.0
20210306141801 53 250 5.0 9.0 0.00 0.00 0.00 37 1016.0
20210306141257 53 271 6.0 9.0 0.00 0.00 0.00 40 1015.8
20210306140759 53 284 6.0 9.0 0.00 0.00 0.00 38 1015.8
20210306140255 52 284 7.0 10.0 0.00 0.00 0.00 40 1015.9
20210306135851 53 277 7.0 10.0 0.00 0.00 0.00 39 1015.8
20210306135558 53 283 6.0 11.0 0.00 0.00 0.00 38 1015.8
20210306134820 53 265 6.0 11.0 0.00 0.00 0.00 38 1015.7
20210306134253 53 261 8.0 11.0 0.00 0.00 0.00 37 1015.7
20210306133753 54 260 9.0 11.0 0.00 0.00 0.00 36 1015.7
20210306133306 54 271 8.0 11.0 0.00 0.00 0.00 36 1015.7
20210306133142 54 252 6.0 9.0 0.00 0.00 0.00 35 1015.7
20210306132917 54 257 6.0 8.0 0.00 0.00 0.00 36 1015.7
20210306131803 53 246 6.0 9.0 0.00 0.00 0.00 37 1015.6
20210306131253 53 273 6.0 9.0 0.00 0.00 0.00 40 1015.6
20210306130754 53 267 6.0 9.0 0.00 0.00 0.00 40 1015.4
20210306130331 53 294 6.0 13.0 0.00 0.00 0.00 40 1015.4
20210306130107 53 320 6.0 13.0 0.00 0.00 0.00 41 1015.5
20210306125850 53 346 10.0 15.0 0.00 0.00 0.00 41 1015.4
20210306124834 53 300 12.0 15.0 0.00 0.00 0.00 42 1015.5
20210306124258 53 271 9.0 15.0 0.00 0.00 0.00 44 1015.6
20210306123753 52 272 7.0 10.0 0.00 0.00 0.00 45 1015.7
20210306123253 52 252 7.0 10.0 0.00 0.00 0.00 43 1015.5
20210306123020 53 225 8.0 11.0 0.00 0.00 0.00 41 1015.4
20210306122821 54 219 8.0 11.0 0.00 0.00 0.00 38 1015.4
20210306121843 57 198 7.0 9.0 0.00 0.00 0.00 27 1015.4
20210306121254 57 232 9.0 14.0 0.00 0.00 0.00 24 1015.4
20210306120814 58 246 11.0 16.0 0.00 0.00 0.00 22 1015.4
20210306120258 58 262 13.0 17.0 0.00 0.00 0.00 20 1015.4
20210306120020 58 266 13.0 17.0 0.00 0.00 0.00 20 1015.5
20210306115826 58 272 14.0 17.0 0.00 0.00 0.00 22 1015.6
20210306114755 58 273 14.0 18.0 0.00 0.00 0.00 21 1015.5
20210306114300 57 276 14.0 18.0 0.00 0.00 0.00 23 1015.4
20210306113916 56 284 15.0 20.0 0.00 0.00 0.00 25 1015.4
20210306113650 56 281 16.0 20.0 0.00 0.00 0.00 26 1015.5
20210306113244 56 286 17.0 21.0 0.00 0.00 0.00 27 1015.5
20210306113038 56 284 18.0 24.0 0.00 0.00 0.00 28 1015.4
20210306111753 56 300 21.0 29.0 0.00 0.00 0.00 27 1015.4
20210306111302 56 301 23.0 29.0 0.00 0.00 0.00 28 1015.3
20210306110753 56 282 22.0 27.0 0.00 0.00 0.00 27 1015.4
20210306110555 56 294 19.0 27.0 0.00 0.00 0.00 27 1015.4
20210306110202 56 286 18.0 27.0 0.00 0.00 0.00 27 1015.4
20210306105906 56 292 19.0 26.0 0.00 0.00 0.00 28 1015.6
20210306104844 55 292 20.0 27.0 0.00 0.00 0.00 29 1015.6
20210306104252 55 342 19.0 27.0 0.00 0.00 0.00 29 1015.6
20210306103758 55 275 20.0 25.0 0.00 0.00 0.00 31 1015.7
20210306103250 55 273 20.0 26.0 0.00 0.00 0.00 32 1015.7
20210306102904 54 286 21.0 26.0 0.00 0.00 0.00 34 1015.9
20210306102552 55 286 18.0 25.0 0.00 0.00 0.00 32 1015.9
20210306101817 55 265 17.0 25.0 0.00 0.00 0.00 31 1015.9
20210306101250 55 304 17.0 23.0 0.00 0.00 0.00 30 1016.0
20210306100751 55 279 15.0 22.0 0.00 0.00 0.00 28 1016.0
20210306100348 55 273 14.0 19.0 0.00 0.00 0.00 28 1016.0
20210306100105 55 283 14.0 19.0 0.00 0.00 0.00 29 1016.0
20210306095754 55 283 14.0 19.0 0.00 0.00 0.00 28 1016.2
20210306094840 55 286 15.0 26.0 0.00 0.00 0.00 28 1016.0
20210306094254 55 270 17.0 26.0 0.00 0.00 0.00 27 1016.0
20210306093754 55 277 19.0 27.0 0.00 0.00 0.00 28 1016.2
20210306093256 55 302 19.0 27.0 0.00 0.00 0.00 28 1016.2
20210306092908 55 275 18.0 24.0 0.00 0.00 0.00 29 1016.2
20210306092730 55 285 18.0 24.0 0.00 0.00 0.00 27 1016.2
20210306091806 55 279 19.0 25.0 0.00 0.00 0.00 27 1016.2
20210306091248 54 275 18.0 25.0 0.00 0.00 0.00 28 1016.3
20210306090747 55 284 15.0 21.0 0.00 0.00 0.00 28 1016.2
20210306090336 56 283 14.0 18.0 0.00 0.00 0.00 29 1016.3
20210306090157 56 294 12.0 18.0 0.00 0.00 0.00 31 1016.3
20210306085803 56 282 12.0 18.0 0.00 0.00 0.00 30 1016.3
20210306084800 55 279 14.0 21.0 0.00 0.00 0.00 30 1016.3
20210306084251 56 280 14.0 21.0 0.00 0.00 0.00 35 1016.3
20210306083757 56 279 14.0 21.0 0.00 0.00 0.00 34 1016.2
20210306083246 55 277 15.0 22.0 0.00 0.00 0.00 38 1016.3
20210306083041 55 292 14.0 22.0 0.00 0.00 0.00 36 1016.3
20210306082853 56 284 13.0 20.0 0.00 0.00 0.00 34 1016.3
20210306081908 55 318 14.0 20.0 0.00 0.00 0.00 33 1016.4
20210306081242 55 269 15.0 20.0 0.00 0.00 0.00 30 1016.4
20210306080742 55 286 15.0 21.0 0.00 0.00 0.00 33 1016.4
20210306080246 55 287 13.0 21.0 0.00 0.00 0.00 42 1016.4
20210306075955 57 290 8.0 19.0 0.00 0.00 0.00 42 1016.4
20210306075832 58 274 7.0 14.0 0.00 0.00 0.00 32 1016.5
20210306074848 57 283 9.0 14.0 0.00 0.00 0.00 33 1016.4
20210306074242 57 286 11.0 14.0 0.00 0.00 0.00 33 1016.5
20210306073746 58 282 11.0 14.0 0.00 0.00 0.00 34 1016.6
20210306073308 59 272 10.0 14.0 0.00 0.00 0.00 33 1016.5
20210306073046 60 286 9.0 11.0 0.00 0.00 0.00 29 1016.4
20210306072805 60 279 9.0 11.0 0.00 0.00 0.00 26 1016.4
20210306071848 60 284 8.0 11.0 0.00 0.00 0.00 26 1016.4
20210306071239 60 279 5.0 11.0 0.00 0.00 0.00 26 1016.5
20210306070740 60 261 4.0 5.0 0.00 0.00 0.00 25 1016.5
20210306070243 60 252 4.0 5.0 0.00 0.00 0.00 26 1016.5
20210306065917 60 233 4.0 7.0 0.00 0.00 0.00 25 1016.5
20210306065710 61 218 4.0 9.0 0.00 0.00 0.00 25 1016.6
20210306064757 62 226 4.0 9.0 0.00 0.00 0.00 24 1016.6
20210306064234 62 234 6.0 9.0 0.00 0.00 0.00 23 1016.6
20210306063738 62 239 6.0 9.0 0.00 0.00 0.00 22 1016.6
20210306063332 62 253 6.0 9.0 0.00 0.00 0.00 21 1016.6
20210306063040 62 238 6.0 12.0 0.00 0.00 0.00 21 1016.6
20210306062853 62 257 7.0 12.0 0.00 0.00 0.00 22 1016.6
20210306061902 62 254 8.0 12.0 0.00 0.00 0.00 23 1016.7
20210306061249 61 277 10.0 13.0 0.00 0.00 0.00 24 1016.8
20210306060729 61 281 10.0 14.0 0.00 0.00 0.00 25 1016.8
20210306060238 61 287 10.0 16.0 0.00 0.00 0.00 26 1016.8
20210306055911 60 294 11.0 16.0 0.00 0.00 0.00 25 1016.8
20210306055758 60 304 12.0 17.0 0.00 0.00 0.00 27 1016.8
20210306054816 60 290 12.0 17.0 0.00 0.00 0.00 28 1016.8
20210306054243 59 288 12.0 18.0 0.00 0.00 0.00 29 1016.7
20210306053741 59 273 13.0 18.0 0.00 0.00 0.00 29 1016.8
20210306053230 60 279 14.0 19.0 0.00 0.00 0.00 29 1016.8
20210306052938 60 301 14.0 20.0 0.00 0.00 0.00 29 1016.8
20210306052715 60 292 15.0 20.0 0.00 0.00 0.00 28 1016.7
20210306051806 60 288 16.0 22.0 0.00 0.00 0.00 29 1016.8
20210306051320 59 284 17.0 22.0 0.00 0.00 0.00 32 1016.6
20210306050740 59 265 17.0 24.0 0.00 0.00 0.00 30 1016.6
20210306050256 59 284 17.0 24.0 0.00 0.00 0.00 31 1016.6
20210306045956 59 279 18.0 24.0 0.00 0.00 0.00 30 1016.6
20210306045629 59 277 19.0 26.0 0.00 0.00 0.00 31 1016.5
20210306044745 59 277 19.0 26.0 0.00 0.00 0.00 30 1016.6
20210306044231 59 281 21.0 26.0 0.00 0.00 0.00 31 1016.5
20210306043730 59 276 22.0 26.0 0.00 0.00 0.00 30 1016.5
20210306043238 59 291 22.0 27.0 0.00 0.00 0.00 31 1016.4
20210306042850 59 279 21.0 27.0 0.00 0.00 0.00 32 1016.3
20210306042625 59 250 21.0 27.0 0.00 0.00 0.00 32 1016.3
20210306041754 59 281 21.0 27.0 0.00 0.00 0.00 32 1016.3
20210306041226 59 277 20.0 27.0 0.00 0.00 0.00 31 1016.2
20210306040726 58 279 19.0 26.0 0.00 0.00 0.00 31 1016.2
20210306040226 59 286 18.0 24.0 0.00 0.00 0.00 32 1016.2
20210306035833 59 284 17.0 24.0 0.00 0.00 0.00 32 1016.3
20210306035346 59 278 16.0 23.0 0.00 0.00 0.00 31 1016.3
20210306034729 59 269 16.0 23.0 0.00 0.00 0.00 32 1016.2
20210306034230 59 281 16.0 23.0 0.00 0.00 0.00 32 1016.3
20210306033725 60 262 16.0 22.0 0.00 0.00 0.00 30 1016.3
20210306033225 60 275 17.0 22.0 0.00 0.00 0.00 32 1016.2
20210306032942 60 271 16.0 20.0 0.00 0.00 0.00 29 1016.2
20210306032848 60 274 16.0 23.0 0.00 0.00 0.00 31 1016.3
20210306031734 60 281 15.0 23.0 0.00 0.00 0.00 30 1016.3
20210306031225 60 267 14.0 22.0 0.00 0.00 0.00 30 1016.3
20210306030725 60 275 14.0 19.0 0.00 0.00 0.00 30 1016.3
20210306030230 60 281 13.0 17.0 0.00 0.00 0.00 28 1016.3
20210306030038 60 281 12.0 17.0 0.00 0.00 0.00 30 1016.4
20210306025851 61 229 11.0 17.0 0.00 0.00 0.00 28 1016.4
20210306024844 60 259 11.0 17.0 0.00 0.00 0.00 29 1016.4
20210306024224 60 259 11.0 15.0 0.00 0.00 0.00 30 1016.4
20210306023721 61 277 10.0 15.0 0.00 0.00 0.00 28 1016.4
20210306023221 62 266 10.0 15.0 0.00 0.00 0.00 27 1016.4
20210306022802 61 274 11.0 15.0 0.00 0.00 0.00 26 1016.4
20210306022445 62 275 11.0 14.0 0.00 0.00 0.00 31 1016.4
20210306021741 62 250 10.0 14.0 0.00 0.00 0.00 28 1016.4
20210306021222 62 262 10.0 13.0 0.00 0.00 0.00 27 1016.4